Terminal Aerodrome Forecast
Issued by NWS Topeka, KS

Home | Current Version | Previous Version | Graphics & Text | Print | Product List | Glossary On
Versions: 1 2 3 4 5 6 7 8 9 10 11 12 13 14 15 16 17 18 19 20 21 22 23 24 25 26 27
000
FTUS43 KTOP 232000 AAA
TAFTOP
TAF AMD
KTOP 232001Z 2320/2418 17007KT P6SM SCT030
     FM240000 18005KT P6SM SCT035
     FM240600 17004KT 5SM BR BKN025=

USA.gov is the U.S. government's official web portal to all federal, state and local government web resources and services.